Find Starlink 34408

NORAD ID: 64363 Int'l Des: 2025-126 Owner: SPXS Country: US Constellation: starlink operational
LEOCIRCULAR

当前视图

正在加载3D地球...

About Starlink 34408

Starlink 34408 (NORAD 64363) is a starlink constellation satellite (v2 mini) launched Jun 13, 2025 by SPXS of US. It operates in LEO, CIRCULAR orbit with a mass of 575.00 kg.

即将过境

Passes for default location (London). Set your location on the main map for personalized predictions.

高度历史

Loading altitude history...

两行轨道根数

1 64363U 25126V 26263.97969616 .00008875 00000-0 31270-3 0 9994
2 64363 69.9999 259.6976 0002979 269.5638 90.5195 15.29591033 69995
Epoch: Sep 20, 2026 • Age: 26 hours

当前状态

高度 484.5 km
远地点 / 近地点 N/A
速度 7.63 km/s
星下点 44.07°N, 37.41°E
发射日期 Jun 13, 2025
运行时间 1.2 years
类型 internet

技术详情

分类 Payload
质量 575.00 kg
干质量 530.00 kg
长度 0.30 m
跨度 29.00 m
形状 ? Box + pan
制造商 SPXS
平台类型 Starlink V2MO
阶段状态 In Orbit
所有者/国家 SPXS/US

Most Searched